| time (UTC) | temp C | wind direction | speed KPH | gust KPH | rain 1hr cm | rain 24hr cm | rain mn cm | humidity % | barometer mb |
| 20260506101547 | 5 | 322 | 3.2 | 6.4 | 0.00 | 0.00 | 0.00 | 67 | 1008.5 |
| 20260506100545 | 6 | 37 | 0.0 | 6.4 | 0.00 | 0.00 | 0.00 | 69 | 1008.0 |
| 20260506095545 | 6 | 46 | 0.0 | 6.4 | 0.00 | 0.00 | 0.00 | 70 | 1007.8 |
| 20260506094553 | 6 | 66 | 0.0 | 6.4 | 0.00 | 0.00 | 0.00 | 71 | 1007.7 |
| 20260506093549 | 6 | 67 | 0.0 | 8.0 | 0.00 | 0.00 | 0.00 | 70 | 1007.9 |
| 20260506092546 | 6 | 33 | 3.2 | 8.0 | 0.00 | 0.00 | 0.00 | 74 | 1007.8 |
| 20260506091544 | 6 | 331 | 0.0 | 6.4 | 0.00 | 0.00 | 0.00 | 77 | 1007.7 |
| 20260506090546 | 6 | 333 | 3.2 | 8.0 | 0.00 | 0.00 | 0.00 | 76 | 1007.6 |
| 20260506085556 | 6 | 333 | 0.0 | 8.0 | 0.00 | 0.00 | 0.00 | 75 | 1007.5 |
| 20260506084543 | 7 | 331 | 3.2 | 6.4 | 0.00 | 0.00 | 0.00 | 74 | 1007.6 |
| 20260506083539 | 7 | 336 | 0.0 | 6.4 | 0.00 | 0.00 | 0.00 | 73 | 1007.7 |
| 20260506082540 | 7 | 333 | 3.2 | 6.4 | 0.00 | 0.00 | 0.00 | 72 | 1007.6 |
| 20260506081539 | 7 | 331 | 0.0 | 6.4 | 0.00 | 0.00 | 0.00 | 71 | 1007.8 |
| 20260506080540 | 7 | 323 | 3.2 | 6.4 | 0.00 | 0.00 | 0.00 | 70 | 1007.7 |
| 20260506072541 | 8 | 331 | 3.2 | 8.0 | 0.00 | 0.00 | 0.00 | 66 | 1007.4 |
| 20260506071534 | 8 | 312 | 3.2 | 6.4 | 0.00 | 0.00 | 0.00 | 65 | 1007.5 |
| 20260506070531 | 8 | 313 | 0.0 | 6.4 | 0.00 | 0.00 | 0.00 | 64 | 1007.4 |
| 20260506061530 | 8 | 305 | 3.2 | 8.0 | 0.00 | 0.00 | 0.00 | 59 | 1007.6 |
| 20260506060530 | 8 | 343 | 6.4 | 11.3 | 0.00 | 0.00 | 0.00 | 58 | 1007.5 |
| 20260506050529 | 9 | 315 | 3.2 | 8.0 | 0.00 | 0.00 | 0.00 | 55 | 1007.5 |
| 20260506044530 | 9 | 329 | 3.2 | 6.4 | 0.00 | 0.00 | 0.00 | 55 | 1007.1 |
| 20260506043525 | 9 | 307 | 3.2 | 8.0 | 0.00 | 0.00 | 0.00 | 55 | 1007.3 |
| 20260506042527 | 9 | 327 | 3.2 | 8.0 | 0.00 | 0.00 | 0.00 | 54 | 1007.2 |
| 20260506041524 | 9 | 326 | 3.2 | 11.3 | 0.00 | 0.00 | 0.00 | 55 | 1007.2 |
| 20260506040518 | 9 | 298 | 0.0 | 6.4 | 0.00 | 0.00 | 0.00 | 54 | 1007.3 |
| 20260506035519 | 9 | 336 | 0.0 | 6.4 | 0.00 | 0.00 | 0.00 | 55 | 1007.4 |
| 20260506034518 | 9 | 313 | 0.0 | 0.0 | 0.00 | 0.00 | 0.00 | 54 | 1007.5 |
| 20260506033516 | 9 | 305 | 0.0 | 6.4 | 0.00 | 0.00 | 0.00 | 54 | 1007.4 |
| 20260506032521 | 9 | 302 | 0.0 | 11.3 | 0.00 | 0.00 | 0.00 | 54 | 1007.4 |
| 20260506031515 | 10 | 350 | 0.0 | 8.0 | 0.00 | 0.00 | 0.00 | 53 | 1007.4 |
| 20260506030517 | 10 | 323 | 0.0 | 6.4 | 0.00 | 0.00 | 0.00 | 53 | 1007.3 |
| 20260506025517 | 10 | 291 | 0.0 | 6.4 | 0.00 | 0.00 | 0.00 | 52 | 1007.4 |
| 20260506024518 | 10 | 178 | 0.0 | 6.4 | 0.00 | 0.00 | 0.00 | 52 | 1007.6 |
| 20260506023516 | 10 | 326 | 0.0 | 6.4 | 0.00 | 0.00 | 0.00 | 52 | 1007.4 |
| 20260506022519 | 10 | 184 | 0.0 | 6.4 | 0.00 | 0.00 | 0.00 | 53 | 1007.4 |
| 20260506021517 | 10 | 236 | 0.0 | 6.4 | 0.00 | 0.00 | 0.00 | 50 | 1007.7 |
| 20260506020511 | 10 | 280 | 0.0 | 3.2 | 0.00 | 0.00 | 0.00 | 51 | 1007.5 |
| 20260506015510 | 10 | 314 | 3.2 | 11.3 | 0.00 | 0.00 | 0.00 | 49 | 1007.2 |
| 20260506014510 | 10 | 316 | 0.0 | 11.3 | 0.00 | 0.00 | 0.00 | 50 | 1007.0 |
| 20260506013514 | 10 | 257 | 0.0 | 11.3 | 0.00 | 0.00 | 0.00 | 50 | 1007.0 |
| 20260506012510 | 10 | 252 | 0.0 | 8.0 | 0.00 | 0.00 | 0.00 | 50 | 1006.9 |
| 20260506011506 | 10 | 268 | 0.0 | 6.4 | 0.00 | 0.00 | 0.00 | 49 | 1006.8 |
| 20260506010503 | 10 | 305 | 3.2 | 8.0 | 0.00 | 0.00 | 0.00 | 47 | 1006.8 |
| 20260506005500 | 11 | 220 | 0.0 | 11.3 | 0.00 | 0.00 | 0.00 | 47 | 1006.9 |
| 20260506004503 | 11 | 279 | 0.0 | 11.3 | 0.00 | 0.00 | 0.00 | 48 | 1006.9 |
| 20260506003502 | 11 | 279 | 0.0 | 11.3 | 0.00 | 0.00 | 0.00 | 47 | 1006.8 |
| 20260506002501 | 11 | 290 | 0.0 | 8.0 | 0.00 | 0.00 | 0.00 | 47 | 1006.7 |
| 20260506001501 | 11 | 288 | 0.0 | 6.4 | 0.00 | 0.00 | 0.00 | 48 | 1006.8 |
| 20260506000503 | 11 | 350 | 3.2 | 8.0 | 0.00 | 0.00 | 0.00 | 47 | 1006.5 |
| 20260505235500 | 11 | 344 | 3.2 | 8.0 | 0.00 | 0.00 | 0.00 | 49 | 1006.3 |
| 20260505234500 | 11 | 270 | 0.0 | 14.5 | 0.00 | 0.00 | 0.00 | 50 | 1006.3 |
| 20260505233500 | 11 | 108 | 3.2 | 11.3 | 0.00 | 0.00 | 0.00 | 51 | 1006.2 |
| 20260505232459 | 11 | 150 | 3.2 | 11.3 | 0.00 | 0.00 | 0.00 | 56 | 1006.0 |
| 20260505231500 | 11 | 142 | 0.0 | 6.4 | 0.00 | 0.00 | 0.00 | 58 | 1006.0 |
| 20260505230501 | 11 | 164 | 3.2 | 11.3 | 0.00 | 0.00 | 0.00 | 59 | 1006.0 |
| 20260505225458 | 12 | 244 | 0.0 | 8.0 | 0.00 | 0.00 | 0.00 | 58 | 1006.1 |
| 20260505224503 | 12 | 203 | 3.2 | 14.5 | 0.00 | 0.00 | 0.00 | 58 | 1006.2 |
| 20260505223504 | 12 | 186 | 0.0 | 8.0 | 0.00 | 0.00 | 0.00 | 57 | 1006.2 |
| 20260505222457 | 12 | 173 | 0.0 | 6.4 | 0.00 | 0.00 | 0.00 | 58 | 1006.2 |
| 20260505221454 | 12 | 161 | 3.2 | 19.3 | 0.00 | 0.00 | 0.00 | 57 | 1006.2 |
| 20260505220452 | 12 | 239 | 0.0 | 14.5 | 0.00 | 0.00 | 0.00 | 57 | 1006.2 |
| 20260505215457 | 12 | 258 | 3.2 | 17.7 | 0.00 | 0.00 | 0.00 | 57 | 1006.3 |
| 20260505214457 | 12 | 116 | 3.2 | 11.3 | 0.00 | 0.00 | 0.00 | 57 | 1006.3 |
| 20260505213452 | 12 | 307 | 3.2 | 11.3 | 0.00 | 0.00 | 0.00 | 57 | 1006.2 |
| 20260505212454 | 12 | 199 | 3.2 | 11.3 | 0.00 | 0.00 | 0.00 | 56 | 1006.2 |
| 20260505211456 | 12 | 333 | 3.2 | 14.5 | 0.00 | 0.00 | 0.00 | 59 | 1006.3 |
| 20260505210502 | 12 | 172 | 3.2 | 8.0 | 0.00 | 0.00 | 0.00 | 62 | 1006.3 |
| 20260505205451 | 12 | 142 | 3.2 | 17.7 | 0.00 | 0.00 | 0.00 | 65 | 1006.3 |
| 20260505204451 | 12 | 153 | 0.0 | 11.3 | 0.00 | 0.00 | 0.00 | 64 | 1006.2 |
| 20260505203448 | 12 | 177 | 0.0 | 8.0 | 0.00 | 0.00 | 0.00 | 64 | 1006.2 |
| 20260505202449 | 12 | 217 | 0.0 | 11.3 | 0.00 | 0.00 | 0.00 | 63 | 1006.2 |
| 20260505201450 | 12 | 169 | 3.2 | 8.0 | 0.00 | 0.00 | 0.00 | 62 | 1006.2 |
| 20260505200445 | 12 | 182 | 0.0 | 8.0 | 0.00 | 0.00 | 0.00 | 63 | 1006.3 |
| 20260505195446 | 12 | 278 | 3.2 | 14.5 | 0.00 | 0.00 | 0.00 | 62 | 1006.4 |
| 20260505194446 | 12 | 292 | 3.2 | 8.0 | 0.00 | 0.00 | 0.00 | 62 | 1006.3 |
| 20260505193449 | 12 | 186 | 3.2 | 14.5 | 0.00 | 0.00 | 0.00 | 62 | 1006.4 |
| 20260505192446 | 12 | 309 | 3.2 | 17.7 | 0.00 | 0.00 | 0.00 | 63 | 1006.5 |
| 20260505191440 | 12 | 311 | 3.2 | 17.7 | 0.00 | 0.00 | 0.00 | 63 | 1006.4 |
| 20260505190440 | 12 | 175 | 3.2 | 8.0 | 0.00 | 0.00 | 0.00 | 63 | 1006.5 |
| 20260505185439 | 12 | 270 | 3.2 | 11.3 | 0.00 | 0.00 | 0.00 | 62 | 1006.5 |
| 20260505184440 | 12 | 243 | 3.2 | 17.7 | 0.00 | 0.00 | 0.00 | 63 | 1006.4 |
| 20260505183440 | 12 | 251 | 3.2 | 17.7 | 0.00 | 0.00 | 0.00 | 63 | 1006.2 |
| 20260505182438 | 12 | 242 | 6.4 | 8.0 | 0.00 | 0.00 | 0.00 | 62 | 1006.0 |
| 20260505181439 | 12 | 331 | 6.4 | 22.5 | 0.00 | 0.00 | 0.00 | 65 | 1005.8 |
| 20260505180437 | 12 | 0 | 3.2 | 14.5 | 0.00 | 0.00 | 0.00 | 66 | 1005.8 |
| 20260505175440 | 12 | 151 | 3.2 | 14.5 | 0.00 | 0.00 | 0.00 | 69 | 1005.7 |
| 20260505174436 | 11 | 162 | 3.2 | 14.5 | 0.00 | 0.00 | 0.00 | 70 | 1005.6 |
| 20260505173441 | 11 | 216 | 6.4 | 17.7 | 0.00 | 0.00 | 0.00 | 71 | 1005.8 |
| 20260505172435 | 11 | 190 | 6.4 | 19.3 | 0.00 | 0.00 | 0.00 | 72 | 1005.6 |
| 20260505171437 | 11 | 160 | 3.2 | 17.7 | 0.00 | 0.00 | 0.00 | 75 | 1005.8 |
| 20260505170435 | 11 | 5 | 6.4 | 17.7 | 0.00 | 0.00 | 0.00 | 75 | 1005.7 |
| 20260505165439 | 11 | 230 | 3.2 | 19.3 | 0.00 | 0.00 | 0.00 | 76 | 1005.9 |
| 20260505164436 | 10 | 186 | 6.4 | 19.3 | 0.00 | 0.00 | 0.00 | 79 | 1005.9 |
| 20260505163436 | 10 | 174 | 3.2 | 11.3 | 0.00 | 0.00 | 0.00 | 80 | 1005.7 |
| 20260505162435 | 10 | 165 | 3.2 | 6.4 | 0.00 | 0.00 | 0.00 | 80 | 1005.9 |
| 20260505161437 | 10 | 180 | 3.2 | 8.0 | 0.00 | 0.00 | 0.00 | 80 | 1006.0 |
| 20260505160437 | 10 | 167 | 3.2 | 8.0 | 0.00 | 0.00 | 0.00 | 78 | 1005.9 |
| 20260505152435 | 10 | 309 | 3.2 | 8.0 | 0.00 | 0.00 | 0.00 | 72 | 1006.0 |
| 20260505151436 | 11 | 340 | 3.2 | 8.0 | 0.00 | 0.00 | 0.00 | 71 | 1005.6 |
| 20260505150430 | 11 | 333 | 3.2 | 8.0 | 0.00 | 0.00 | 0.00 | 72 | 1005.6 |
| 20260505140429 | 11 | 317 | 3.2 | 8.0 | 0.00 | 0.00 | 0.00 | 72 | 1005.0 |
| 20260505124421 | 11 | 87 | 3.2 | 11.3 | 0.00 | 0.00 | 0.00 | 75 | 1003.1 |
| 20260505123423 | 11 | 336 | 3.2 | 11.3 | 0.00 | 0.00 | 0.00 | 76 | 1003.2 |
| 20260505122422 | 11 | 333 | 3.2 | 14.5 | 0.00 | 0.00 | 0.00 | 78 | 1002.9 |
| 20260505121426 | 12 | 331 | 6.4 | 14.5 | 0.00 | 0.00 | 0.00 | 80 | 1002.8 |
| 20260505120417 | 12 | 320 | 3.2 | 14.5 | 0.00 | 0.00 | 0.00 | 79 | 1002.8 |
| 20260505115415 | 13 | 335 | 3.2 | 8.0 | 0.00 | 0.00 | 0.00 | 78 | 1002.4 |
| 20260505114418 | 13 | 241 | 3.2 | 14.5 | 0.00 | 0.00 | 0.00 | 78 | 1002.4 |
| 20260505113416 | 13 | 173 | 0.0 | 8.0 | 0.00 | 0.00 | 0.00 | 79 | 1002.0 |
| 20260505112413 | 13 | 188 | 0.0 | 6.4 | 0.00 | 0.00 | 0.00 | 80 | 1001.7 |
| 20260505111416 | 13 | 166 | 0.0 | 11.3 | 0.00 | 0.00 | 0.00 | 82 | 1001.4 |
| 20260505110412 | 13 | 124 | 0.0 | 8.0 | 0.00 | 0.00 | 0.00 | 83 | 1001.2 |